Location: *
(40.9167°N, 9.5000°E)
Time: 07:08:58
(UTC+00:00)

Cosmos 2181 Rocket - Pass Details

Date: 09 April 2020
Orbit: 952 x 1014 km, 82.9° (Epoch: 03 June)

Event Time Altitude Azimuth Distance (km) Brightness Sun altitude
Exits shadow 19:28:06 12° 166° (SSE) 2,608 5.9 -17.3°
Maximum altitude 19:33:48 54° 92° (E) 1,172 4.1 -18.2°
Drops below altitude 10° 19:39:48 10° 17° (NNE) 2,707 6.5 -19.2°
Sets 19:42:20 0° 13° (NNE) 3,651 7.2 -19.6°
